Regional Weather Roundup
Issued by NWS

Home | Current Version | Previous Version | Text Only | Print | Product List | Glossary Off
Versions: 1 2 3 4 5 6 7 8 9 10 11 12 13 14 15 16 17 18 19 20 21 22 23 24 25 26 27

000
ASUS45 KBOU 161010
RWRCO

WEATHER ROUNDUP FOR COLORADO
NATIONAL WEATHER SERVICE DENVER/BOULDER CO
300 AM MST SAT DEC 16 2017

NOTE: "FAIR" INDICATES FEW OR NO CLOUDS BELOW 12000 FEET WITH NO
SIGNIFICANT WEATHER AND/OR OBSTRUCTIONS TO VISIBILITY.

COZ001>005-013-030-031-161100-
...NORTHWEST COLORADO...

CITY           SKY/WX    TMP DP  RH WIND       PRES   REMARKS
CRAIG          FAIR       5   0  79 CALM      29.93F
HAYDEN         FAIR      21  10  62 E13       29.94F WCI   9
MEEKER         FAIR      18   6  59 E5        29.93F WCI  11
RABBIT EARS PA FAIR      27  -8  22 W7        29.96F WCI  19
STEAMBOAT SPGS FAIR      13   8  80 CALM      29.95F
WALDEN         FAIR      25   1  36 S10       29.92S WCI  15
$$

COZ006>008-011-161100-
...WEST CENTRAL VALLEYS...

CITY           SKY/WX    TMP DP  RH WIND       PRES   REMARKS
GRAND JUNCTION FAIR      24   9  52 E12       29.97F WCI  13
MONTROSE       FAIR      19   6  57 S6        30.01F WCI  11
EAGLE          FAIR       8   4  83 CALM      30.04F
RIFLE          FAIR      15   5  64 S3        30.00F
DELTA          FAIR      20   4  48 CALM      30.00F
NUCLA          FAIR      27  -6  24 SE12      30.03F WCI  16
$$

COZ017>023-064>068-161100-
...SOUTHWEST COLORADO...

CITY           SKY/WX    TMP DP  RH WIND       PRES   REMARKS
DURANGO        FAIR      17  11  77 CALM      30.01F
CORTEZ         FAIR      14   0  53 E7        30.02F WCI   4
PAGOSA SPRINGS FAIR      17   8  66 CALM      30.02F
TELLURIDE      FAIR      28   2  32 CALM      30.03S
WOLF CREEK PAS FAIR      28   0  29 SW12      30.13F WCI  18
$$

COZ009-010-012-014-032>034-037-058>063-161100-
...CENTRAL COLORADO...

CITY           SKY/WX    TMP DP  RH WIND       PRES   REMARKS
ASPEN          FAIR      19   9  65 S6        29.95F WCI  11
BUENA VISTA    FAIR      20  10  63 W5        29.95F WCI  14
COPPER MTN     NOT AVBL
BERTHOUD PASS  FAIR      25  14  63 W31       30.01R WCI   8
COTTONWOOD PAS FAIR      41   3  20 W8        29.97F
GUNNISON       FAIR       8   2  76 CALM      30.07F
KREMMLING      FAIR       7   1  78 CALM      30.02S
LEADVILLE      FAIR      22   4  46 NE6       29.97F WCI  14
MONARCH PASS   FAIR      27  -2  28 W31       30.15F WCI  10
SALIDA         FAIR      29   8  41 N14G21    30.01F WCI  18
SUNLIGHT       FAIR      27  -6  24 SW13G21   30.04F WCI  16
WILKERSON PASS FAIR      30   1  29 W13G21    30.02F WCI  20
$$

COZ069>075-161100-
...SAN LUIS VALLEY/SANGRE DE CRISTO MOUNTAINS...

CITY           SKY/WX    TMP DP  RH WIND       PRES   REMARKS
ALAMOSA        FAIR       3  -1  83 CALM      30.02F
DEL NORTE      FAIR      14   5  67 W10       30.02F WCI   1
LA VETA PASS   FAIR      27  -6  24 SW30        N/A  WCI  10
SAGUACHE       FAIR      21   3  45 NW7       30.02F WCI  13
$$

COZ035-036-038>040-161100-
...NORTHERN COLORADO FRONT RANGE...

CITY           SKY/WX    TMP DP  RH WIND       PRES   REMARKS
DENVER INTL AP CLOUDY    38  15  39 S8        29.76F
DMNS CITY PARK NOT AVBL
AURORA         MOCLDY    39  13  33 S3        29.78S
FRONT RANGE AP FAIR      41  17  38 S8        29.78S
ERIE MUNI ARPT FAIR      53   2  12 W14       29.80F
BOULDER MUN AP FAIR      48  10  21 W3        29.76F
CENTENNIAL     MOCLDY    37  17  44 SE6       29.78S
BROOMFIELD     FAIR      46  12  25 CALM      29.77F
FORT COLLINS   FAIR      38  21  50 NE3       29.76S
LONGMONT       FAIR      49   9  20 SW6       29.77S
$$

COZ041-046-047-076>085-087-088-161100-
...PIKES PEAK/PALMER DIVIDE AND SOUTHERN FOOTHILLS...

CITY           SKY/WX    TMP DP  RH WIND       PRES   REMARKS
COLO. SPRINGS  FAIR      32   9  38 N6        29.81F WCI  26
A. F. ACADEMY  FAIR      31   9  39 NE9       29.81F WCI  23
SCHRIEVER AFB  FAIR      35   6  30 CALM      29.80F
CHEYENNE MTN   FAIR      45  11  25 CALM      29.77F
ELLICOTT         N/A    N/A N/A N/A CALM      29.79F
FALCON         FAIR      31   7  36 CALM      29.83F
FORT CARSON    FAIR      32  13  45 N7        29.77F WCI  25
LIMON          FAIR      21  14  74 CALM      29.77F
MONUMENT HILL  FAIR      39  10  30 SW9       29.83F
CANON CITY     FAIR      43  12  28 W16       29.79F
WALSENBURG     FAIR      43   5  21 SW12      29.82F
TRINIDAD       FAIR      27  12  53 NW12      29.82F WCI  17
$$

COZ042>045-048>051-090-091-161100-
...NORTHEAST COLORADO...

CITY           SKY/WX    TMP DP  RH WIND       PRES   REMARKS
GREELEY ARPT   FAIR      29  19  66 SW3       29.77F
AKRON          FAIR      34  13  41 W10       29.77R WCI  26
BURLINGTON     FAIR      29  12  49 W12       29.76S WCI  19
WRAY           FAIR      32  12  43 NW10      29.76F WCI  24
YUMA           FAIR      28  12  50 CALM      29.76R
STERLING       FAIR      21  14  73 W3        29.77S
HOLYOKE        FAIR      32  18  55 SW6       29.76S WCI  26
FORT MORGAN    FAIR      26  16  66 SW3       29.77S
$$

COZ086-089-092>099-161100-
...SOUTHEAST COLORADO...

CITY           SKY/WX    TMP DP  RH WIND       PRES   REMARKS
PUEBLO         FAIR      21  11  65 W3        29.77F
LA JUNTA       FAIR      31  12  45 W12       29.78F WCI  22
LAMAR          FAIR      17  11  77 SW8       29.76F WCI   7
SPRINGFIELD      N/A     30  14  51 SW6       29.77F WCI  24
$$




USA.gov is the U.S. government's official web portal to all federal, state and local government web resources and services.